Flag for U.S.A. Weather past 2 weeks in Ontario, California, U.S.A.

Now
51 °F

Clear.


Feels Like: 45 °F
Forecast: 36 / 59 °F
Wind: 22 mph from Northeast

Location: Ontario International Airport

Current Time: Dec 27, 2014 at 1:28:00 AM

Latest Report: Dec 27, 2014 at 12:53 AM


Visibility: 10 mi

Pressure: 30.19 "Hg

Humidity: 21%

Dew point: 12 °F

Location of OntarioLocation

Historic Weather in Ontario — Graph

°F

Ontario temperature yesterday

Maximum temperature yesterday: 60 °F (at 1:53 PM)
Minimum temperature yesterday: 44 °F (at 3:53 AM)
Average temperature yesterday: 52 °F

Past Weeks' High & Low Weather Summary

 TemperatureHumidityPressure
High80 °F (Dec 23, 10:53 AM)97% (Dec 13, 2:53 AM)30.24 "Hg (Dec 13, 2:53 AM)
Low43 °F (Dec 14, 6:53 AM)14% (Dec 26, 12:53 PM)29.75 "Hg (Dec 25, 4:53 AM)
Average56 °F62%30.04 "Hg
* Reported Dec 11 11:53 PM — Dec 26 11:53 PM, Ontario, Weather by CustomWeather, © 2014

Note: Actual official high and low records may vary slightly from our data, if they occured in-between our weather recording intervals... More about our weather records

Advertising

Ontario weather history for previous 24 hours

 ConditionsComfort  
Time TempWeatherWind HumidityBarometerVisibility
11:53 PM
Dec 26
52 °FClear.18 mph19%30.19 "Hg10 mi
10:53 PM52 °FClear.16 mph19%30.18 "Hg10 mi
9:53 PM52 °FClear.8 mph20%30.19 "Hg10 mi
8:53 PM53 °FClear.22 mph18%30.17 "Hg10 mi
7:53 PM54 °FClear.22 mph16%30.14 "Hg10 mi
6:53 PM54 °FClear.8 mph15%30.13 "Hg10 mi
5:53 PM53 °FClear.8 mph18%30.11 "Hg10 mi
4:53 PM54 °FClear.9 mph19%30.08 "Hg10 mi
3:53 PM59 °FSunny.9 mph16%30.05 "Hg10 mi
2:53 PM59 °FSunny.14 mph15%30.04 "Hg10 mi
1:53 PM60 °FSunny.16 mph15%30.03 "Hg10 mi
12:53 PM59 °FSunny.14 mph14%30.03 "Hg10 mi
11:53 AM58 °FSunny.20 mph15%30.05 "Hg10 mi
10:53 AM56 °FSunny.21 mph17%30.06 "Hg10 mi
9:53 AM55 °FSunny.21 mph19%30.06 "Hg10 mi
8:53 AM53 °FSunny.21 mph20%30.04 "Hg10 mi
7:53 AM51 °FSunny.22 mph21%30.03 "Hg10 mi
6:53 AM50 °FClear.20 mph21%30.01 "Hg10 mi
5:53 AM44 °FClear.6 mph34%30.00 "Hg10 mi
4:53 AM44 °FClear.7 mph35%29.97 "Hg10 mi
3:53 AM44 °FClear.5 mph37%29.94 "Hg10 mi
2:53 AM46 °FClear.No wind31%29.93 "Hg10 mi
1:53 AM45 °FClear.5 mph34%29.93 "Hg10 mi
Weather by CustomWeather, © 2014

See weather overviewHow to use our weather pages